z/d,0,0,50,50,100,100,200,200,300,300,400,400,500,500,750,750,1000,1000,2000,2000,3000,3000,4000,4000,4700,4700
2016.10.05-01:00,.39,62.26,.62,77.00,.75,69.36,.85,76.12,.81,72.82,.68,67.09,.70,67.14,.41,50.77,.43,37.94,.21,43.62,.23,54.24,.22,47.90,.03,90.00
2016.10.05-02:00,.43,46.77,.62,77.18,.75,69.97,.79,75.21,.76,71.65,.64,63.97,.67,67.97,.43,48.09,.45,37.10,.20,39.10,.22,56.13,.20,48.54,.03,90.00
2016.10.05-03:00,.50,36.22,.60,76.99,.74,70.39,.74,72.19,.73,69.96,.62,61.04,.64,68.93,.44,45.94,.45,36.13,.19,33.78,.20,58.66,.17,49.04,.03,90.00
2016.10.05-04:00,.58,30.18,.57,77.30,.72,70.78,.71,67.89,.72,68.14,.64,59.08,.62,69.25,.45,44.14,.45,36.08,.18,29.27,.17,61.61,.13,47.87,.02,90.00
2016.10.05-05:00,.67,28.47,.53,77.93,.69,70.98,.72,64.04,.73,67.02,.68,58.54,.60,68.92,.46,43.39,.46,37.94,.16,26.71,.13,64.06,.09,40.16,.01,90.00
2016.10.05-06:00,.76,30.73,.51,79.33,.68,72.13,.76,62.86,.76,67.57,.73,60.05,.60,68.62,.47,43.76,.45,41.01,.15,25.68,.10,64.82,.06,22.25,.00,270.00
2016.10.05-07:00,.82,34.17,.49,81.89,.68,75.11,.82,64.97,.80,69.70,.78,63.15,.60,68.85,.49,45.52,.45,45.01,.15,25.38,.08,61.99,.06,6.22,.01,270.00
2016.10.05-08:00,.90,35.41,.48,83.42,.68,78.78,.87,69.02,.81,72.14,.81,66.51,.61,69.18,.50,48.91,.44,50.32,.15,26.46,.09,56.70,.08,5.78,.01,270.00
2016.10.05-09:00,1.04,39.81,.49,82.90,.69,82.00,.91,73.46,.81,73.45,.81,68.89,.61,68.75,.50,52.82,.42,56.14,.17,29.30,.11,53.61,.10,15.79,.00,270.00
2016.10.05-10:00,1.21,44.91,.52,83.06,.69,85.47,.91,77.46,.78,73.19,.79,69.86,.62,67.80,.50,56.72,.40,61.55,.19,32.39,.14,52.37,.14,25.11,.01,90.00
2016.10.05-11:00,1.33,51.12,.55,86.10,.68,89.99,.88,80.69,.75,71.63,.77,69.64,.64,67.04,.52,60.04,.39,65.19,.21,35.25,.16,52.06,.16,30.61,.01,90.00
2016.10.05-12:00,1.41,59.83,.56,92.05,.65,95.65,.82,82.89,.73,69.25,.75,68.78,.68,66.62,.56,61.99,.39,65.65,.23,37.96,.17,51.84,.18,32.77,.02,90.00
2016.10.05-13:00,1.47,69.32,.56,98.45,.59,101.34,.74,82.91,.71,66.40,.73,67.60,.69,66.55,.59,63.30,.38,63.54,.23,40.44,.16,50.87,.18,32.43,.01,90.00
2016.10.05-14:00,1.49,77.75,.57,101.95,.52,104.82,.68,79.81,.70,63.62,.71,66.58,.69,67.51,.59,65.52,.36,59.99,.22,42.52,.15,49.83,.17,31.85,.01,90.00
2016.10.05-15:00,1.42,85.10,.56,104.26,.44,103.88,.65,74.80,.72,61.39,.70,65.73,.66,68.99,.56,68.49,.32,54.02,.20,43.07,.14,49.09,.16,31.76,.01,90.00
2016.10.05-16:00,1.28,92.90,.54,108.74,.37,97.96,.65,70.53,.75,60.21,.70,64.67,.64,69.30,.52,70.54,.29,44.78,.18,42.71,.12,49.84,.13,32.30,.00,90.00
2016.10.05-17:00,1.11,100.97,.52,114.48,.36,89.06,.67,68.00,.79,59.83,.72,63.39,.61,68.11,.48,71.56,.28,35.03,.16,43.20,.10,51.17,.10,32.09,.00,270.00
2016.10.05-18:00,.97,108.86,.50,121.02,.37,82.50,.71,67.71,.85,60.20,.75,63.02,.62,67.23,.44,73.40,.29,29.40,.14,44.36,.08,49.99,.08,28.39,.01,270.00
2016.10.05-19:00,.89,113.61,.48,127.47,.42,81.80,.76,69.59,.90,61.46,.80,64.26,.64,67.82,.41,76.14,.32,28.09,.13,45.16,.08,46.14,.07,23.67,.01,270.00
2016.10.05-20:00,.83,116.07,.47,131.62,.48,85.07,.79,72.67,.95,63.61,.84,67.06,.67,69.82,.39,78.23,.35,29.36,.13,46.12,.09,43.30,.08,23.43,.01,270.00
2016.10.05-21:00,.81,117.80,.47,132.64,.53,89.23,.80,75.29,.99,66.49,.88,70.63,.69,72.13,.35,77.29,.38,31.29,.15,47.39,.12,44.75,.10,30.62,.00,270.00
2016.10.05-22:00,.85,119.20,.47,132.52,.57,93.45,.80,76.43,1.03,69.77,.90,73.51,.71,73.34,.31,70.88,.41,33.10,.17,47.13,.16,47.79,.14,38.74,.01,90.00
2016.10.05-23:00,.95,123.80,.49,132.99,.60,97.57,.79,76.42,1.05,73.35,.89,74.93,.71,73.11,.31,60.49,.45,35.82,.18,45.66,.19,50.67,.16,44.39,.02,90.00
2016.10.05-24:00,1.01,131.64,.49,135.40,.60,101.41,.77,75.92,1.04,76.98,.87,74.96,.71,72.11,.36,52.19,.51,39.14,.20,43.79,.21,52.67,.18,46.86,.02,90.00
2016.10.06-01:00,1.05,138.63,.48,137.72,.57,103.26,.75,75.29,.99,79.90,.83,73.82,.70,71.10,.42,47.39,.55,42.02,.21,42.20,.22,54.41,.18,47.11,.03,90.00
2016.10.06-02:00,1.05,145.72,.45,139.30,.53,102.68,.72,74.14,.94,81.86,.79,72.39,.68,70.40,.47,45.32,.58,44.91,.21,40.45,.22,55.79,.17,45.15,.02,90.00
2016.10.06-03:00,.99,152.95,.40,141.16,.49,101.68,.69,72.21,.87,82.91,.78,71.39,.66,69.66,.52,45.19,.59,48.12,.20,37.95,.20,56.81,.16,41.12,.02,90.00
2016.10.06-04:00,.90,163.47,.34,140.85,.46,101.65,.68,70.01,.80,82.61,.76,70.42,.64,67.87,.55,45.70,.58,51.47,.18,34.72,.17,57.80,.13,35.07,.01,90.00
2016.10.06-05:00,.78,174.70,.31,136.29,.47,102.92,.71,68.83,.76,80.54,.77,69.17,.62,64.83,.57,46.98,.56,55.43,.17,30.91,.13,57.72,.11,25.47,.00,90.00
2016.10.06-06:00,.68,188.22,.30,132.80,.50,106.26,.74,69.81,.75,77.86,.79,68.65,.63,62.13,.57,49.23,.52,59.22,.16,27.10,.11,57.44,.09,16.24,.00,270.00
2016.10.06-07:00,.58,205.03,.28,132.65,.52,112.22,.77,73.04,.76,76.41,.82,69.69,.66,61.27,.57,52.00,.47,61.57,.16,24.53,.09,57.26,.09,11.14,.01,270.00
2016.10.06-08:00,.50,221.56,.28,129.39,.55,118.08,.80,77.55,.78,76.74,.85,72.04,.70,62.27,.57,55.20,.43,62.79,.17,25.47,.09,55.46,.09,10.88,.01,270.00
2016.10.06-09:00,.44,235.20,.32,124.21,.57,122.26,.81,81.84,.79,77.85,.86,74.41,.73,63.80,.55,58.45,.38,63.56,.18,30.15,.10,52.25,.10,14.79,.01,270.00
2016.10.06-10:00,.38,244.99,.38,122.52,.58,125.34,.80,85.44,.78,78.74,.85,75.61,.76,64.99,.54,61.24,.35,64.17,.20,36.24,.12,49.27,.12,19.47,.00,270.00
2016.10.06-11:00,.31,248.39,.45,124.22,.57,127.53,.76,88.02,.76,78.55,.83,75.21,.79,66.09,.55,63.49,.33,64.06,.22,41.33,.14,47.26,.14,23.03,.00,90.00
2016.10.06-12:00,.23,242.91,.52,127.81,.56,129.85,.71,89.67,.71,77.10,.80,73.94,.82,67.57,.57,65.06,.33,61.59,.23,44.52,.15,46.41,.16,26.42,.00,90.00
2016.10.06-13:00,.17,229.78,.59,130.47,.53,131.57,.66,89.95,.67,74.47,.77,72.53,.82,69.25,.58,65.58,.32,55.50,.22,46.35,.16,46.74,.17,30.26,.01,90.00
2016.10.06-14:00,.09,219.74,.62,133.20,.49,132.87,.61,88.59,.65,71.19,.76,71.92,.81,71.40,.59,66.06,.33,47.92,.21,47.27,.16,46.47,.17,32.56,.01,90.00
2016.10.06-15:00,.03,227.99,.60,138.42,.42,134.83,.58,85.98,.65,67.62,.76,72.34,.79,73.71,.59,67.37,.35,42.44,.18,47.14,.15,44.43,.16,32.40,.01,90.00
2016.10.06-16:00,.04,60.48,.56,145.86,.35,136.11,.55,83.16,.67,63.67,.75,72.47,.75,74.42,.59,68.05,.38,38.16,.15,45.55,.13,42.72,.14,32.55,.00,90.00
2016.10.06-17:00,.16,73.92,.52,153.43,.31,134.00,.56,81.17,.71,60.32,.74,71.77,.70,73.18,.56,68.28,.40,34.46,.13,42.35,.11,42.60,.11,34.52,.00,270.00
2016.10.06-18:00,.22,89.45,.44,162.44,.27,130.07,.58,80.59,.77,59.19,.74,71.19,.68,71.62,.53,69.68,.42,32.69,.11,38.67,.09,42.39,.09,35.45,.00,270.00
2016.10.06-19:00,.24,103.86,.36,173.16,.25,125.08,.61,82.22,.83,60.74,.76,71.57,.68,70.89,.50,71.85,.43,32.82,.11,35.81,.09,41.98,.07,33.82,.01,270.00
2016.10.06-20:00,.27,119.27,.27,183.30,.24,119.12,.65,85.65,.90,64.20,.79,72.75,.70,70.95,.47,73.78,.45,34.73,.12,34.49,.09,42.84,.06,31.52,.01,270.00
2016.10.06-21:00,.32,133.37,.19,193.86,.24,113.56,.67,89.52,.94,68.27,.82,73.86,.73,71.08,.44,74.31,.47,38.02,.14,35.51,.11,45.99,.07,32.54,.01,270.00
2016.10.06-22:00,.36,143.95,.12,203.08,.24,108.49,.67,92.85,.95,72.05,.82,74.22,.75,70.84,.42,72.47,.49,42.05,.16,38.20,.14,49.93,.09,35.51,.00,270.00
2016.10.06-23:00,.42,149.00,.07,190.08,.25,103.46,.65,95.23,.94,75.17,.82,73.72,.77,70.27,.42,68.09,.51,45.93,.19,40.70,.17,53.35,.11,38.06,.00,90.00
2016.10.06-24:00,.49,151.43,.08,140.50,.27,99.12,.62,96.48,.90,77.50,.79,72.55,.78,69.49,.43,62.37,.54,49.07,.21,42.06,.19,56.09,.13,40.00,.01,90.00
2016.10.07-01:00,.55,157.86,.10,122.73,.26,93.31,.56,95.91,.85,78.79,.77,71.01,.78,68.81,.46,57.80,.56,51.81,.22,42.59,.20,58.25,.14,40.71,.01,90.00
2016.10.07-02:00,.55,168.13,.07,108.61,.23,81.88,.50,93.25,.80,79.49,.77,70.09,.79,69.07,.52,56.39,.58,54.77,.23,42.38,.20,59.05,.15,38.24,.01,90.00
2016.10.07-03:00,.49,182.91,.04,34.80,.21,62.28,.44,88.25,.74,79.53,.76,69.52,.79,69.89,.56,57.02,.59,57.80,.22,42.21,.18,58.60,.14,33.07,.01,90.00
2016.10.07-04:00,.41,201.10,.11,353.12,.22,43.56,.38,79.03,.68,77.69,.74,67.72,.77,69.97,.59,58.00,.58,60.63,.20,42.99,.16,57.59,.14,26.81,.00,90.00
2016.10.07-05:00,.36,219.91,.17,354.69,.25,36.51,.37,66.38,.65,73.95,.74,64.77,.75,69.12,.59,58.91,.55,63.12,.17,44.25,.13,55.98,.13,20.27,.00,270.00
2016.10.07-06:00,.35,242.44,.22,355.52,.28,34.37,.40,56.75,.65,70.49,.77,62.81,.73,68.47,.58,59.81,.51,64.92,.15,44.41,.11,54.31,.13,15.55,.01,270.00
2016.10.07-07:00,.42,264.34,.28,352.30,.29,33.00,.45,53.16,.67,69.11,.80,62.98,.72,68.73,.55,60.24,.46,65.34,.13,41.87,.09,53.77,.12,15.02,.01,270.00
2016.10.07-08:00,.54,280.47,.33,351.60,.30,33.88,.50,54.19,.70,69.93,.84,64.85,.72,69.90,.53,60.62,.41,64.94,.13,37.55,.08,52.40,.11,17.67,.01,270.00
2016.10.07-09:00,.63,292.31,.37,355.89,.31,36.94,.54,56.69,.71,71.70,.86,66.96,.72,71.09,.51,61.58,.37,64.87,.14,35.26,.08,48.42,.11,21.13,.01,270.00
2016.10.07-10:00,.69,302.09,.40,5.55,.33,41.22,.56,58.54,.70,72.99,.86,68.26,.71,71.47,.50,63.27,.35,65.78,.15,35.86,.09,43.50,.11,23.87,.01,270.00
2016.10.07-11:00,.72,312.12,.43,18.80,.37,46.14,.56,59.67,.67,73.26,.85,68.73,.71,71.09,.51,64.96,.33,66.50,.16,37.41,.11,40.45,.12,27.03,.00,270.00
2016.10.07-12:00,.75,320.31,.44,28.94,.39,49.71,.55,60.32,.62,72.24,.83,68.75,.70,70.16,.51,65.94,.31,65.40,.18,38.90,.12,39.66,.13,30.53,.00,270.00
2016.10.07-13:00,.81,325.17,.43,33.45,.38,51.65,.52,60.84,.58,69.60,.81,68.62,.70,68.76,.53,65.82,.31,61.68,.18,39.95,.14,39.55,.14,32.93,.00,90.00
2016.10.07-14:00,.85,328.36,.40,32.58,.34,50.91,.49,60.79,.56,65.40,.81,68.88,.70,67.60,.55,65.44,.31,56.18,.18,40.30,.14,39.30,.14,33.92,.00,90.00
2016.10.07-15:00,.88,331.54,.36,28.79,.29,46.08,.46,59.17,.56,59.86,.81,69.62,.70,67.08,.57,65.44,.33,50.09,.17,39.80,.14,39.17,.13,34.13,.00,270.00
2016.10.07-16:00,.88,336.38,.30,27.48,.25,38.52,.44,54.57,.59,53.04,.80,69.87,.70,66.17,.57,65.24,.34,43.98,.15,39.37,.13,40.19,.12,34.57,.00,270.00
2016.10.07-17:00,.82,347.02,.24,29.82,.25,30.85,.45,47.54,.66,47.24,.79,69.38,.69,64.50,.56,64.55,.36,38.70,.13,39.82,.12,42.77,.10,35.23,.01,270.00
2016.10.07-18:00,.70,359.47,.19,25.81,.26,21.91,.48,41.84,.76,45.40,.78,69.52,.68,63.58,.54,64.28,.39,35.64,.12,40.40,.11,46.50,.07,34.91,.01,270.00
2016.10.07-19:00,.62,5.96,.18,9.51,.30,13.39,.53,39.66,.84,47.19,.78,70.84,.69,64.02,.52,64.67,.41,35.04,.11,40.43,.10,51.45,.06,33.49,.02,270.00
2016.10.07-20:00,.58,10.58,.22,355.23,.35,9.14,.59,40.79,.92,51.20,.78,72.64,.70,65.09,.50,65.45,.44,36.76,.11,40.30,.09,56.58,.04,30.83,.02,270.00
2016.10.07-21:00,.56,14.79,.29,349.19,.40,8.13,.64,43.82,.97,56.40,.78,74.33,.72,66.47,.49,66.96,.46,41.13,.12,40.53,.10,59.56,.04,25.57,.02,270.00
2016.10.07-22:00,.54,19.44,.37,350.27,.45,9.62,.68,47.15,1.00,61.71,.77,75.30,.76,67.92,.50,69.03,.49,47.16,.14,41.37,.11,60.23,.06,21.94,.02,270.00
2016.10.07-23:00,.54,25.04,.44,356.58,.50,13.64,.72,50.14,1.01,66.57,.76,75.35,.78,69.33,.51,70.61,.50,52.92,.16,42.42,.13,60.23,.08,24.06,.01,270.00
2016.10.07-24:00,.53,30.24,.49,3.78,.53,18.47,.76,52.96,1.00,71.07,.74,74.70,.80,70.71,.51,70.68,.51,57.23,.18,43.31,.15,60.51,.10,28.52,.01,270.00
2016.10.08-01:00,.51,33.56,.52,9.28,.55,22.64,.79,55.90,.98,75.31,.72,73.73,.80,72.03,.52,69.17,.51,60.02,.19,44.21,.16,60.88,.12,31.57,.00,270.00
2016.10.08-02:00,.47,33.78,.55,12.61,.57,25.92,.81,58.84,.95,79.06,.71,72.76,.80,73.33,.54,67.21,.51,61.85,.19,45.24,.16,60.61,.14,31.72,.00,270.00
2016.10.08-03:00,.42,29.50,.55,13.11,.58,27.59,.82,60.90,.91,81.63,.70,71.38,.79,74.28,.55,65.88,.52,63.54,.19,46.73,.16,59.36,.15,29.54,.00,270.00
2016.10.08-04:00,.38,21.07,.55,12.94,.59,28.18,.81,61.53,.84,82.11,.69,68.54,.77,74.22,.57,65.50,.51,65.70,.18,48.77,.14,57.05,.15,26.13,.00,270.00
2016.10.08-05:00,.37,13.92,.55,15.51,.60,29.77,.82,61.96,.77,80.29,.68,64.72,.73,73.23,.57,65.79,.50,68.20,.17,50.28,.12,53.62,.14,22.73,.01,270.00
2016.10.08-06:00,.41,9.50,.56,18.92,.63,31.99,.83,63.38,.71,77.34,.69,61.85,.69,72.10,.55,66.23,.47,70.24,.15,49.70,.10,49.90,.13,21.80,.01,270.00
2016.10.08-07:00,.46,7.84,.58,21.19,.65,34.09,.83,65.92,.68,74.71,.71,60.83,.67,71.32,.53,66.53,.43,71.38,.13,46.00,.09,47.07,.12,24.61,.01,270.00
2016.10.08-08:00,.56,10.56,.60,23.05,.66,36.24,.81,69.21,.68,72.78,.74,61.41,.66,71.06,.51,66.88,.39,72.01,.11,40.34,.08,44.33,.11,28.93,.00,270.00
2016.10.08-09:00,.70,18.45,.62,25.32,.68,38.67,.79,72.64,.68,71.65,.77,63.11,.67,71.55,.50,67.81,.35,72.93,.11,36.08,.08,40.13,.10,31.69,.00,270.00
2016.10.08-10:00,.85,27.26,.66,29.87,.71,42.37,.77,75.54,.70,71.25,.80,65.00,.68,72.37,.49,68.82,.30,74.01,.12,35.09,.08,37.29,.10,33.56,.00,270.00
2016.10.08-11:00,1.01,35.66,.72,36.64,.75,47.56,.74,77.56,.71,71.01,.82,66.30,.67,72.74,.47,69.06,.26,74.04,.13,36.05,.10,37.59,.11,35.96,.00,270.00
2016.10.08-12:00,1.14,42.69,.74,43.10,.79,53.48,.71,78.76,.70,70.59,.82,66.99,.66,72.35,.46,68.25,.24,71.33,.15,37.10,.12,39.53,.11,38.62,.00,270.00
2016.10.08-13:00,1.22,49.24,.72,48.32,.79,59.79,.67,78.73,.70,69.97,.82,67.65,.66,71.62,.47,66.94,.24,65.61,.16,37.54,.13,41.68,.11,40.61,.00,270.00
2016.10.08-14:00,1.26,55.99,.67,52.13,.78,65.65,.63,76.55,.70,68.97,.83,68.66,.66,70.85,.49,65.54,.25,58.35,.16,37.77,.14,43.94,.11,41.62,.00,270.00
2016.10.08-15:00,1.23,62.73,.61,54.42,.74,69.93,.61,71.92,.71,67.50,.85,70.15,.67,70.26,.52,64.64,.29,52.27,.16,38.15,.14,46.27,.10,41.11,.01,270.00
2016.10.08-16:00,1.16,68.72,.57,55.06,.69,71.77,.60,65.52,.71,65.59,.86,71.99,.68,69.86,.55,65.01,.33,49.17,.16,38.57,.13,48.56,.09,38.30,.01,270.00
2016.10.08-17:00,1.08,73.79,.56,55.73,.65,72.18,.62,59.38,.72,63.64,.86,73.80,.67,69.16,.57,66.26,.36,48.06,.14,39.23,.12,51.27,.07,32.96,.02,270.00
2016.10.08-18:00,.99,77.47,.58,57.53,.63,72.28,.67,55.74,.75,62.27,.84,75.25,.66,67.61,.56,67.23,.38,47.19,.13,41.35,.11,55.47,.06,26.23,.02,270.00
2016.10.08-19:00,.96,80.07,.59,58.84,.61,71.47,.75,55.16,.78,61.98,.83,76.51,.66,66.02,.55,68.07,.39,47.09,.12,45.34,.10,60.46,.06,17.16,.02,270.00
2016.10.08-20:00,.93,81.23,.59,58.46,.59,69.40,.81,56.75,.82,62.84,.82,77.87,.68,65.58,.53,69.50,.40,48.84,.12,49.24,.09,64.63,.06,8.59,.03,270.00
2016.10.08-21:00,.89,80.64,.59,56.12,.58,66.50,.87,59.72,.87,64.79,.82,79.47,.71,66.67,.52,71.39,.40,52.63,.12,50.39,.09,66.78,.06,5.83,.03,270.00
2016.10.08-22:00,.83,79.15,.61,52.44,.59,63.46,.92,63.46,.91,67.66,.83,81.33,.75,68.82,.52,72.97,.41,57.77,.12,48.27,.09,66.52,.08,10.10,.02,270.00
2016.10.08-23:00,.78,76.85,.66,50.41,.63,61.68,.96,67.52,.95,70.97,.82,82.95,.78,70.96,.51,73.35,.42,63.03,.14,45.12,.10,65.14,.09,19.17,.02,270.00
2016.10.08-24:00,.77,75.34,.74,51.81,.68,61.98,.99,71.64,.97,74.22,.80,83.68,.80,72.44,.51,72.55,.42,67.63,.15,43.53,.11,63.23,.11,27.53,.01,270.00
2016.10.09-01:00,.80,75.85,.80,55.51,.74,63.67,1.01,75.50,.98,76.94,.78,83.13,.81,73.27,.52,71.36,.42,70.83,.17,44.21,.12,61.25,.13,32.67,.00,270.00
2016.10.09-02:00,.80,77.31,.85,60.03,.79,65.81,1.01,78.84,.98,78.82,.75,81.42,.81,73.83,.54,70.72,.43,72.22,.18,46.25,.13,59.52,.14,35.19,.00,90.00
2016.10.09-03:00,.76,78.14,.87,63.67,.81,67.19,.99,81.28,.95,79.70,.73,79.20,.81,74.66,.57,71.51,.43,72.73,.18,48.67,.14,57.59,.15,35.84,.00,90.00
2016.10.09-04:00,.67,76.85,.86,65.39,.81,66.76,.94,82.31,.91,79.46,.72,76.84,.80,75.82,.59,73.69,.44,73.64,.18,50.99,.14,55.00,.16,35.47,.00,90.00
2016.10.09-05:00,.59,72.21,.85,66.05,.80,65.08,.88,81.79,.88,78.42,.71,74.67,.80,77.09,.60,76.44,.44,75.40,.16,52.53,.13,51.24,.15,34.31,.00,90.00
2016.10.09-06:00,.59,68.66,.85,67.37,.81,63.73,.84,80.10,.87,77.26,.72,73.04,.79,78.14,.59,78.35,.42,77.15,.15,52.88,.12,47.28,.15,33.65,.00,90.00
2016.10.09-07:00,.62,67.88,.86,69.99,.84,63.77,.82,78.05,.87,76.66,.74,72.18,.77,78.85,.54,78.30,.38,77.98,.13,51.41,.12,44.80,.14,34.87,.00,90.00
2016.10.09-08:00,.64,66.89,.86,73.32,.86,65.35,.81,76.57,.88,77.10,.75,72.29,.76,79.64,.50,76.29,.33,77.79,.12,47.15,.11,43.78,.12,37.47,.00,270.00
2016.10.09-09:00,.68,66.53,.84,76.37,.89,68.30,.82,76.07,.89,78.52,.77,72.91,.74,80.53,.47,73.14,.29,77.24,.11,40.74,.11,43.64,.11,40.12,.00,270.00
2016.10.09-10:00,.71,66.52,.83,78.07,.93,72.19,.84,76.48,.90,80.69,.77,73.38,.72,81.31,.45,70.30,.26,77.35,.12,34.73,.11,43.84,.10,41.07,.01,270.00
2016.10.09-11:00,.75,66.73,.83,78.56,.96,76.54,.86,77.49,.91,83.26,.77,73.34,.70,81.58,.44,68.45,.24,77.59,.12,31.00,.11,44.49,.09,39.64,.01,270.00
2016.10.09-12:00,.75,69.79,.83,79.39,.98,81.20,.88,78.61,.90,85.58,.78,72.49,.68,80.88,.45,67.56,.23,76.14,.13,29.61,.12,46.35,.09,37.78,.01,270.00
2016.10.09-13:00,.73,75.15,.82,81.76,.95,86.00,.89,79.44,.88,86.97,.79,71.00,.66,79.25,.48,67.84,.24,72.91,.14,29.44,.12,48.97,.09,36.39,.01,270.00
2016.10.09-14:00,.72,81.71,.80,85.48,.90,90.37,.89,79.98,.84,87.13,.81,69.64,.65,77.28,.51,69.21,.26,69.54,.15,29.98,.12,51.33,.09,34.21,.01,270.00
2016.10.09-15:00,.73,88.50,.77,89.56,.83,93.60,.88,80.38,.80,86.14,.84,69.00,.65,75.25,.54,70.69,.29,66.34,.16,32.06,.12,53.60,.09,30.94,.02,270.00
2016.10.09-16:00,.74,94.34,.74,92.68,.76,94.72,.87,80.46,.76,84.06,.86,69.32,.65,73.43,.56,72.04,.31,63.47,.16,35.92,.12,55.70,.09,25.96,.02,270.00
2016.10.09-17:00,.71,99.72,.68,93.79,.68,92.83,.86,79.66,.73,80.95,.89,70.61,.66,72.44,.57,73.96,.33,62.01,.16,40.87,.11,57.07,.08,19.03,.02,270.00
2016.10.09-18:00,.65,104.71,.62,93.12,.61,87.82,.84,77.84,.71,77.21,.91,72.68,.67,72.27,.56,76.05,.34,61.94,.15,45.77,.10,58.20,.08,12.82,.03,270.00
2016.10.09-19:00,.59,111.89,.56,91.91,.57,81.06,.83,75.76,.72,73.78,.93,75.24,.69,72.12,.55,76.79,.34,62.12,.15,49.93,.09,60.60,.08,11.30,.03,270.00
2016.10.09-20:00,.53,119.19,.53,90.60,.57,74.86,.84,74.21,.74,71.56,.94,78.10,.70,71.62,.52,75.89,.33,62.75,.13,53.36,.09,63.94,.08,13.72,.02,270.00
2016.10.09-21:00,.48,121.71,.51,87.59,.60,70.52,.86,73.49,.78,70.76,.94,81.01,.72,71.17,.50,74.62,.33,64.61,.13,55.87,.08,66.69,.09,17.33,.02,270.00
2016.10.09-22:00,.43,120.53,.53,82.86,.66,68.50,.89,73.70,.81,70.97,.94,83.59,.74,71.16,.50,74.25,.33,67.55,.12,57.04,.08,67.74,.09,21.65,.02,270.00
2016.10.09-23:00,.41,116.48,.58,79.23,.73,68.66,.92,74.60,.84,71.45,.92,85.23,.76,71.46,.50,74.88,.33,70.86,.11,56.69,.08,66.72,.09,26.64,.01,270.00
2016.10.09-24:00,.42,113.88,.64,79.01,.80,70.81,.96,75.94,.87,71.66,.89,85.58,.78,71.75,.50,75.63,.34,73.48,.11,54.89,.09,64.47,.10,31.88,.01,270.00
2016.10.10-01:00,.44,115.18,.69,81.68,.86,74.38,.99,77.42,.89,71.40,.87,84.85,.81,72.13,.52,76.20,.35,75.31,.12,52.22,.10,61.33,.11,36.06,.01,270.00
2016.10.10-02:00,.45,118.89,.71,85.52,.90,78.50,1.01,78.80,.92,70.90,.87,83.75,.84,72.89,.54,76.78,.37,76.52,.13,49.46,.11,57.79,.12,38.36,.00,270.00
2016.10.10-03:00,.45,123.17,.72,89.13,.91,82.30,1.01,79.93,.94,70.57,.86,83.04,.86,74.23,.56,77.48,.38,77.06,.13,47.30,.12,54.85,.13,39.15,.00,270.00
2016.10.10-04:00,.43,128.36,.70,91.65,.89,84.82,1.00,80.47,.96,70.49,.86,82.79,.87,75.92,.57,78.33,.40,77.19,.14,46.18,.13,53.06,.13,39.15,.00,90.00
2016.10.10-05:00,.39,134.90,.64,92.71,.84,85.43,.97,80.17,.97,70.50,.84,82.47,.86,77.39,.57,79.18,.41,77.49,.14,45.99,.13,52.22,.13,38.58,.00,90.00
2016.10.10-06:00,.35,141.08,.60,93.12,.79,84.76,.95,79.40,.99,70.89,.83,81.89,.85,78.39,.56,79.79,.41,78.37,.14,45.46,.13,51.31,.13,37.01,.00,270.00
2016.10.10-07:00,.35,145.52,.58,94.46,.77,83.95,.94,78.55,1.00,71.56,.81,80.82,.82,78.59,.55,79.54,.40,79.45,.14,44.54,.13,50.85,.12,35.68,.00,270.00
2016.10.10-08:00,.37,147.80,.59,96.92,.77,83.79,.93,78.07,1.00,72.45,.79,79.36,.79,78.10,.52,78.19,.37,80.49,.13,43.34,.12,51.08,.12,35.01,.01,270.00
2016.10.10-09:00,.38,147.33,.60,99.31,.79,84.60,.94,78.41,1.00,73.56,.78,77.70,.76,77.22,.49,76.28,.34,81.62,.13,41.24,.11,51.83,.11,34.78,.01,270.00
2016.10.10-10:00,.29,127.65,.61,101.05,.82,86.60,.95,79.60,.99,74.69,.77,76.00,.74,76.18,.47,74.88,.31,83.56,.12,37.56,.11,52.91,.10,34.70,.01,270.00
2016.10.10-11:00,.26,119.46,.61,102.30,.84,89.86,.96,81.37,.99,75.56,.78,74.49,.74,75.21,.47,74.76,.28,86.72,.12,33.18,.10,53.55,.09,33.69,.01,270.00
2016.10.10-12:00,.22,115.27,.60,103.80,.84,94.27,.96,83.35,.99,75.92,.80,73.48,.74,74.74,.47,75.68,.26,90.00,.12,30.31,.10,54.13,.09,31.67,.01,270.00
2016.10.10-13:00,.20,108.92,.58,106.32,.82,99.41,.95,84.94,.99,75.58,.82,73.16,.76,74.97,.48,76.53,.24,90.86,.13,30.23,.10,55.58,.09,29.74,.02,270.00
2016.10.10-14:00,.22,112.34,.56,110.61,.77,104.77,.92,85.75,.99,74.93,.84,73.78,.78,75.78,.49,76.29,.24,87.47,.13,32.33,.10,57.86,.09,28.61,.02,270.00
2016.10.10-15:00,.25,126.88,.55,116.44,.71,109.52,.88,85.38,1.00,74.58,.85,75.16,.79,76.63,.51,74.97,.24,81.08,.14,36.02,.10,60.60,.09,28.26,.02,270.00
2016.10.10-16:00,.30,135.55,.55,122.16,.63,112.56,.85,83.74,1.02,74.84,.85,76.63,.79,77.06,.53,73.57,.25,74.98,.15,40.68,.10,62.64,.09,27.05,.02,270.00
2016.10.10-17:00,.35,141.94,.54,126.87,.55,113.27,.83,81.23,1.03,75.69,.83,77.57,.79,77.16,.54,73.07,.27,71.09,.15,45.72,.10,63.70,.09,24.38,.02,270.00
2016.10.10-18:00,.38,152.81,.51,130.94,.46,110.98,.81,78.29,1.04,76.87,.81,77.71,.78,77.15,.55,73.41,.29,68.87,.15,50.65,.10,64.46,.09,21.78,.02,270.00
2016.10.10-19:00,.37,164.59,.47,134.92,.39,104.31,.82,75.35,1.04,78.10,.79,76.94,.77,76.91,.55,74.01,.31,67.70,.14,55.04,.09,65.56,.09,20.53,.02,270.00
2016.10.10-20:00,.35,172.36,.43,138.17,.35,93.16,.84,72.96,1.04,79.13,.77,75.07,.76,76.16,.54,74.70,.31,67.57,.13,58.90,.09,66.81,.09,21.00,.02,270.00
2016.10.10-21:00,.30,174.17,.40,139.18,.38,82.64,.87,71.77,1.03,79.78,.75,72.02,.75,74.73,.52,75.41,.31,68.22,.12,62.29,.08,67.77,.09,22.67,.02,270.00
2016.10.10-22:00,.23,171.25,.38,137.96,.44,77.43,.91,72.25,1.02,80.02,.76,68.43,.74,73.00,.50,76.07,.31,69.22,.10,64.55,.07,68.08,.08,24.96,.01,270.00
2016.10.10-23:00,.17,163.16,.35,135.56,.50,76.32,.95,74.16,1.01,79.92,.80,65.39,.76,71.83,.50,76.81,.31,70.88,.09,64.24,.07,66.95,.08,27.57,.01,270.00
2016.10.10-24:00,.11,145.66,.31,131.60,.55,76.97,.97,76.72,1.01,79.57,.86,63.65,.80,71.73,.50,77.79,.31,73.82,.08,60.07,.07,63.98,.08,29.94,.01,270.00
2016.10.11-01:00,.10,107.60,.29,126.16,.60,78.56,.98,79.10,1.02,79.19,.92,63.25,.83,72.57,.52,78.90,.32,77.43,.07,52.53,.07,60.34,.08,32.24,.01,270.00
2016.10.11-02:00,.13,88.49,.27,121.26,.64,81.19,.98,80.66,1.03,78.90,.99,63.79,.86,73.90,.53,79.84,.34,80.29,.08,44.99,.08,58.00,.09,34.89,.01,270.00
2016.10.11-03:00,.15,83.95,.26,117.57,.68,84.77,.98,81.25,1.04,78.85,1.05,65.18,.88,75.61,.54,80.36,.36,81.60,.09,40.62,.10,57.27,.10,36.96,.00,270.00
2016.10.11-04:00,.18,85.16,.26,114.52,.69,88.46,.97,81.02,1.04,79.00,1.10,67.33,.90,77.52,.55,80.25,.37,81.50,.11,39.78,.11,57.60,.11,38.22,.00,270.00
2016.10.11-05:00,.19,88.31,.24,111.95,.68,91.48,.95,80.12,1.04,79.10,1.13,69.87,.89,79.26,.55,79.51,.38,80.97,.12,40.96,.12,58.44,.12,38.87,.00,270.00
2016.10.11-06:00,.16,87.31,.23,109.48,.67,93.80,.94,78.76,1.03,78.95,1.14,72.46,.87,80.50,.55,78.52,.39,81.03,.13,42.05,.13,59.03,.13,38.62,.00,270.00
2016.10.11-07:00,.18,90.25,.23,107.43,.65,95.81,.94,77.36,1.01,78.43,1.14,74.86,.84,80.85,.54,77.48,.39,81.83,.14,42.08,.13,59.57,.13,38.07,.00,270.00
2016.10.11-08:00,.20,93.26,.26,106.11,.65,97.90,.95,76.52,1.00,77.57,1.12,77.04,.80,79.97,.53,76.33,.38,82.89,.14,41.17,.13,60.38,.13,37.60,.00,270.00
2016.10.11-09:00,.13,59.01,.29,104.37,.65,99.94,.95,76.54,.98,76.53,1.09,78.94,.76,77.98,.51,75.26,.35,84.21,.14,40.02,.12,61.40,.12,36.76,.01,270.00
2016.10.11-10:00,.18,31.35,.31,101.09,.65,101.81,.96,77.33,.96,75.51,1.06,80.42,.73,75.30,.48,74.30,.32,85.81,.13,39.16,.11,62.64,.11,35.38,.01,270.00
2016.10.11-11:00,.24,45.24,.33,97.13,.64,103.85,.96,78.66,.96,74.68,1.03,81.36,.72,72.56,.46,73.58,.28,87.74,.12,38.57,.09,63.50,.10,32.78,.01,270.00
2016.10.11-12:00,.28,33.29,.33,93.06,.61,106.32,.95,80.23,.97,74.22,1.01,81.79,.73,70.50,.45,73.61,.25,90.42,.11,38.79,.08,63.07,.09,28.43,.02,270.00
2016.10.11-13:00,.32,21.94,.31,88.96,.55,109.22,.92,81.73,.98,74.20,.99,81.90,.76,69.37,.46,74.25,.24,92.87,.11,40.23,.07,61.28,.08,23.66,.02,270.00
2016.10.11-14:00,.29,25.39,.28,85.68,.47,111.84,.89,82.77,.99,74.51,.98,81.87,.79,68.97,.47,74.87,.24,93.25,.11,42.70,.07,59.36,.08,20.63,.02,270.00
2016.10.11-15:00,.26,19.15,.26,84.90,.40,112.37,.85,82.94,.99,74.83,.96,81.70,.82,69.01,.49,75.23,.25,91.25,.11,46.00,.07,58.55,.08,20.60,.02,270.00
2016.10.11-16:00,.24,9.76,.27,85.90,.33,108.07,.82,81.96,.98,74.91,.93,81.27,.84,69.38,.52,75.36,.26,87.86,.11,49.64,.08,59.01,.09,23.80,.02,270.00